Location: Newark
(39.9267°N, 1.8017°W)
Time: 16:42:27
(UTC+00:00)

Envisat - Visible Passes

Search period start: 21 March 2019 00:00
Search period end: 31 March 2019 00:00
Orbit: 764 x 766 km, 98.2° (Epoch: 21 March)

Date Brightness Start Highest point End Pass type
(mag) Time Alt. Az. Time Alt. Az. Time Alt. Az.
21 Mar 4.2 19:15:16 10° S 19:20:06 45° W 19:24:59 10° NNW visible
22 Mar 3.0 18:38:15 10° SSE 18:43:19 80° ENE 18:48:25 10° N visible
22 Mar 6.2 20:21:40 10° WSW 20:22:54 11° W 20:24:09 10° WNW visible
23 Mar 5.3 19:41:37 10° SSW 19:45:47 25° W 19:49:58 10° NW visible
24 Mar 3.7 19:03:52 10° S 19:08:51 58° W 19:13:52 10° NNW visible
25 Mar 5.9 20:08:53 10° WSW 20:11:33 14° W 20:14:14 10° WNW visible
26 Mar 4.9 19:29:58 10° SSW 19:34:29 32° W 19:39:02 10° NNW visible
27 Mar 3.3 18:52:34 10° S 18:57:37 74° WSW 19:02:43 10° NNW visible
28 Mar 5.8 19:56:46 10° SW 20:00:13 18° W 20:03:42 10° NW visible
29 Mar 4.4 19:18:27 10° SSW 19:23:13 41° W 19:28:01 10° NNW visible
